| time (UTC) | temp F | wind direction | speed knots | gust knots | rain 1hr in | rain 24hr in | rain mn in | humidity % | barometer mb |
| 20260505040005 | 89 | 247 | 3.5 | 5.2 | 0.00 | 0.00 | 0.00 | 63 | 1008.1 |
| 20260505035004 | 89 | 270 | 1.7 | 2.6 | 0.00 | 0.00 | 0.00 | 64 | 1008.0 |
| 20260505034005 | 87 | 157 | 2.6 | 5.2 | 0.00 | 0.00 | 0.00 | 68 | 1008.1 |
| 20260505033005 | 89 | 225 | 5.2 | 7.0 | 0.00 | 0.00 | 0.00 | 66 | 1008.4 |
| 20260505032005 | 88 | 157 | 0.9 | 3.5 | 0.00 | 0.00 | 0.00 | 69 | 1008.6 |
| 20260505031005 | 88 | 135 | 5.2 | 7.0 | 0.00 | 0.00 | 0.00 | 69 | 1008.7 |
| 20260505030004 | 88 | 157 | 2.6 | 3.5 | 0.00 | 0.00 | 0.00 | 69 | 1008.9 |
| 20260505025004 | 86 | 225 | 0.0 | 0.9 | 0.00 | 0.00 | 0.00 | 72 | 1009.1 |
| 20260505024004 | 85 | 157 | 2.6 | 5.2 | 0.00 | 0.00 | 0.00 | 74 | 1009.4 |
| 20260505023004 | 86 | 157 | 5.2 | 7.0 | 0.00 | 0.00 | 0.00 | 74 | 1009.4 |
| 20260505022004 | 85 | 157 | 6.1 | 8.7 | 0.00 | 0.00 | 0.00 | 75 | 1009.8 |
| 20260505021003 | 85 | 135 | 3.5 | 5.2 | 0.00 | 0.00 | 0.00 | 75 | 1009.9 |
| 20260505020004 | 84 | 157 | 2.6 | 3.5 | 0.00 | 0.00 | 0.00 | 78 | 1010.1 |
| 20260505015003 | 84 | 157 | 4.3 | 7.0 | 0.00 | 0.00 | 0.00 | 79 | 1010.1 |
| 20260505014005 | 83 | 90 | 3.5 | 5.2 | 0.00 | 0.00 | 0.00 | 81 | 1010.2 |
| 20260505013006 | 83 | 135 | 2.6 | 3.5 | 0.00 | 0.00 | 0.00 | 80 | 1010.3 |
| 20260505012004 | 83 | 90 | 1.7 | 5.2 | 0.00 | 0.00 | 0.00 | 80 | 1010.2 |
| 20260505011004 | 82 | 112 | 5.2 | 7.0 | 0.00 | 0.00 | 0.00 | 81 | 1010.4 |
| 20260505010005 | 82 | 112 | 3.5 | 7.0 | 0.00 | 0.00 | 0.00 | 80 | 1010.5 |
| 20260505005004 | 81 | 135 | 3.5 | 5.2 | 0.00 | 0.00 | 0.00 | 82 | 1010.3 |
| 20260505004004 | 80 | 90 | 1.7 | 2.6 | 0.00 | 0.00 | 0.00 | 84 | 1010.5 |
| 20260505003005 | 80 | 157 | 3.5 | 5.2 | 0.00 | 0.00 | 0.00 | 84 | 1010.6 |
| 20260505002005 | 80 | 112 | 1.7 | 2.6 | 0.00 | 0.00 | 0.00 | 85 | 1010.5 |
| 20260505001004 | 79 | 157 | 2.6 | 3.5 | 0.00 | 0.00 | 0.00 | 85 | 1010.2 |
| 20260505000005 | 79 | 135 | 2.6 | 3.5 | 0.00 | 0.00 | 0.00 | 86 | 1010.2 |
| 20260504235005 | 78 | 135 | 0.9 | 1.7 | 0.00 | 0.00 | 0.00 | 87 | 1010.2 |
| 20260504234005 | 78 | 90 | 1.7 | 2.6 | 0.00 | 0.00 | 0.00 | 88 | 1010.2 |
| 20260504233005 | 78 | 112 | 0.9 | 1.7 | 0.00 | 0.00 | 0.00 | 89 | 1010.0 |
| 20260504232005 | 77 | 112 | 0.9 | 1.7 | 0.00 | 0.00 | 0.00 | 91 | 1010.0 |
| 20260504231005 | 77 | 112 | 0.0 | 0.0 | 0.00 | 0.00 | 0.00 | 91 | 1009.7 |
| 20260504230005 | 77 | 157 | 0.9 | 1.7 | 0.00 | 0.00 | 0.00 | 91 | 1009.7 |
| 20260504225005 | 77 | 157 | 0.0 | 0.9 | 0.00 | 0.00 | 0.00 | 92 | 1009.7 |
| 20260504224004 | 77 | 157 | 0.0 | 0.9 | 0.00 | 0.00 | 0.00 | 93 | 1009.6 |
| 20260504223005 | 77 | 157 | 2.6 | 2.6 | 0.00 | 0.00 | 0.00 | 93 | 1009.2 |
| 20260504222004 | 77 | 157 | 0.9 | 1.7 | 0.00 | 0.00 | 0.00 | 93 | 1009.3 |
| 20260504221005 | 77 | 180 | 0.9 | 1.7 | 0.00 | 0.00 | 0.00 | 92 | 1009.0 |
| 20260504220006 | 77 | 180 | 0.9 | 1.7 | 0.00 | 0.00 | 0.00 | 92 | 1008.9 |
| 20260504215003 | 77 | 135 | 0.0 | 0.9 | 0.00 | 0.00 | 0.00 | 93 | 1008.9 |
| 20260504214004 | 77 | 135 | 0.0 | 0.9 | 0.00 | 0.00 | 0.00 | 93 | 1008.6 |
| 20260504213005 | 77 | 135 | 0.0 | 0.9 | 0.00 | 0.00 | 0.00 | 92 | 1008.5 |
| 20260504212005 | 77 | 112 | 0.0 | 1.7 | 0.00 | 0.00 | 0.00 | 92 | 1008.3 |
| 20260504211005 | 76 | 135 | 0.0 | 1.7 | 0.00 | 0.00 | 0.00 | 93 | 1008.4 |
| 20260504210004 | 76 | 112 | 0.9 | 1.7 | 0.00 | 0.00 | 0.00 | 93 | 1008.3 |
| 20260504205004 | 76 | 112 | 0.9 | 0.9 | 0.00 | 0.00 | 0.00 | 93 | 1008.3 |
| 20260504204005 | 76 | 135 | 0.9 | 1.7 | 0.00 | 0.00 | 0.00 | 93 | 1008.6 |
| 20260504203005 | 76 | 135 | 1.7 | 2.6 | 0.00 | 0.00 | 0.00 | 93 | 1008.7 |
| 20260504202004 | 76 | 135 | 2.6 | 3.5 | 0.00 | 0.00 | 0.00 | 94 | 1008.9 |
| 20260504201005 | 76 | 112 | 0.0 | 0.9 | 0.00 | 0.00 | 0.00 | 94 | 1008.8 |
| 20260504195003 | 76 | 135 | 0.9 | 1.7 | 0.00 | 0.00 | 0.00 | 95 | 1008.8 |
| 20260504194005 | 76 | 112 | 0.9 | 2.6 | 0.00 | 0.00 | 0.00 | 95 | 1009.2 |
| 20260504193006 | 75 | 90 | 2.6 | 3.5 | 0.00 | 0.00 | 0.00 | 96 | 1009.2 |
| 20260504192003 | 75 | 90 | 1.7 | 1.7 | 0.00 | 0.00 | 0.00 | 96 | 1009.4 |
| 20260504191005 | 76 | 90 | 0.9 | 1.7 | 0.00 | 0.00 | 0.00 | 96 | 1009.5 |
| 20260504190004 | 76 | 67 | 0.0 | 0.9 | 0.00 | 0.00 | 0.00 | 96 | 1009.5 |
| 20260504185004 | 76 | 90 | 0.9 | 1.7 | 0.00 | 0.00 | 0.00 | 96 | 1009.4 |
| 20260504184005 | 76 | 90 | 1.7 | 1.7 | 0.00 | 0.00 | 0.00 | 96 | 1009.5 |
| 20260504183005 | 76 | 67 | 0.9 | 1.7 | 0.00 | 0.00 | 0.00 | 96 | 1009.6 |
| 20260504182003 | 76 | 67 | 0.9 | 1.7 | 0.00 | 0.00 | 0.00 | 95 | 1009.7 |
| 20260504181004 | 77 | 45 | 0.9 | 1.7 | 0.00 | 0.00 | 0.00 | 93 | 1009.8 |
| 20260504180005 | 77 | 135 | 0.0 | 0.9 | 0.00 | 0.00 | 0.00 | 92 | 1009.5 |
| 20260504175004 | 77 | 180 | 0.0 | 0.9 | 0.00 | 0.00 | 0.00 | 92 | 1009.6 |
| 20260504174005 | 77 | 180 | 1.7 | 1.7 | 0.00 | 0.00 | 0.00 | 92 | 1009.6 |
| 20260504173005 | 77 | 157 | 0.9 | 1.7 | 0.00 | 0.00 | 0.00 | 92 | 1009.9 |
| 20260504172003 | 77 | 135 | 0.0 | 0.9 | 0.00 | 0.00 | 0.00 | 92 | 1010.1 |
| 20260504171005 | 77 | 202 | 0.0 | 0.9 | 0.00 | 0.00 | 0.00 | 92 | 1010.4 |
| 20260504151005 | 78 | 135 | 0.0 | 1.7 | 0.00 | 0.00 | 0.00 | 87 | 1010.4 |
| 20260504141005 | 78 | 135 | 1.7 | 2.6 | 0.00 | 0.00 | 0.00 | 86 | 1010.2 |
| 20260504082004 | 88 | 337 | 3.5 | 5.2 | 0.00 | 0.00 | 0.00 | 70 | 1006.7 |
| 20260504081004 | 89 | 315 | 5.2 | 7.8 | 0.00 | 0.00 | 0.00 | 69 | 1006.5 |
| 20260504050005 | 82 | 247 | 0.9 | 1.7 | 0.00 | 0.00 | 0.00 | 80 | 1009.3 |
| 20260504045004 | 82 | 135 | 0.9 | 0.9 | 0.00 | 0.00 | 0.00 | 81 | 1009.5 |
| 20260504044004 | 82 | 157 | 0.9 | 2.6 | 0.00 | 0.00 | 0.00 | 82 | 1009.5 |
| 20260504043005 | 83 | 157 | 1.7 | 2.6 | 0.00 | 0.00 | 0.00 | 77 | 1009.9 |
| 20260504042004 | 82 | 22 | 0.0 | 0.9 | 0.00 | 0.00 | 0.00 | 82 | 1010.2 |
| 20260504041005 | 85 | 22 | 0.9 | 1.7 | 0.00 | 0.00 | 0.00 | 83 | 1010.3 |